Crescent City, CA

12:48 AM PST on February 19, 2018 (GMT -0800)
McNamara

Weather History for KCEC - June, 2013

Change the Weather History Date:

Wednesday, June 26, 2013

  Actual Average Record
Temperature  
Mean Temperature 61 °F 55 °F  
Max Temperature 66 °F 61 °F 74 °F (1995)
Min Temperature 56 °F 50 °F 40 °F (1999)
Degree Days  
Heating Degree Days 4 10  
Month to date heating degree days 271  
Since 1 June heating degree days 271  
Since 1 July heating degree days 4822  
Cooling Degree Days 0 0  
Month to date cooling degree days 0  
Year to date cooling degree days 0  
Since 1 June cooling degree days 0  
Growing Degree Days 10 (Base 50)    
Moisture  
Dew Point 58 °F    
Average Humidity 91    
Maximum Humidity 100    
Minimum Humidity 81    
Precipitation  
Precipitation 0.18 in 0.05 in 0.87 in (2001)
Month to date precipitation 1.12 1.52  
Year to date precipitation 19.93 36.72  
Since 1 July precipitation 53.63  
Snow  
Snow 0.00 in - - ()
Month to date snowfall 0.0  
Since 1 June snowfall 0.0  
Since 1 July snowfall 0.0  
Snow Depth -    
Sea Level Pressure  
Sea Level Pressure 30.00 in    
Wind  
Wind Speed 9 mph (SSE)    
Max Wind Speed 13 mph    
Max Gust Speed 17 mph    
Visibility 7 miles    
Events Rain    
T = Trace of Precipitation, MM = Missing Value Source: NWS Daily Summary

Daily Weather History Graph

Daily Weather History Graph

Search for Another Location

Airport or City:

Trip Planner

Search our weather history database for the weather conditions in past years. The results will help you decide how hot, cold, wet, or windy it might be!

Date:

Astronomy

Jun. 26, 2013 Rise Set
Actual Time 5:43 AM PDT 8:55 PM PDT
Civil Twilight 5:09 AM PDT 9:30 PM PDT
Nautical Twilight 4:25 AM PDT 10:14 PM PDT
Astronomical Twilight 3:32 AM PDT 11:06 PM PDT
Moon 11:18 PM PDT (6/26) 9:45 AM PDT (6/26)
Length of Visible Light 16h 20m
Length of Day
15h 12m
Waning Gibbous, 84% of the Moon is Illuminated
Jun 26
Waning Gibbous
Jun 29
Last Quarter
Jul 8
New
Jul 15
First Quarter
Jul 22
Full

Hourly Weather History & Observations

Time (PDT) Temp. Dew Point Humidity Pressure Visibility Wind Dir Wind Speed Gust Speed Precip Events Conditions
12:04 AM 57.2 °F 55.4 °F 94% 29.91 in 5.0 mi South 6.9 mph - 0.01 in Rain Light Rain
12:08 AM 57.2 °F 55.4 °F 94% 29.91 in 2.5 mi SSE 8.1 mph - 0.01 in Rain Light Rain
12:21 AM 55.4 °F 55.4 °F 100% 29.91 in 2.0 mi SE 8.1 mph - 0.04 in Rain Rain
12:34 AM 55.4 °F 55.4 °F 100% 29.91 in 4.0 mi SSE 11.5 mph - 0.06 in Rain Light Rain
12:56 AM 55.9 °F 55.9 °F 100% 29.92 in 6.0 mi SSE 10.4 mph - 0.07 in Rain Light Rain
1:56 AM 55.9 °F 55.9 °F 100% 29.92 in 4.0 mi SSE 11.5 mph - 0.00 in Rain Light Rain
2:56 AM 57.0 °F 57.0 °F 100% 29.93 in 4.0 mi SSE 12.7 mph - 0.02 in Rain Light Rain
3:46 AM 57.2 °F 57.2 °F 100% 29.93 in 2.5 mi South 10.4 mph - 0.06 in Rain Rain
3:56 AM 57.0 °F 57.0 °F 100% 29.94 in 2.5 mi South 9.2 mph - 0.08 in Rain Light Rain
4:04 AM 57.2 °F 57.2 °F 100% 29.93 in 5.0 mi SSE 11.5 mph - 0.00 in Rain Light Rain
4:56 AM 57.9 °F 57.9 °F 100% 29.94 in 8.0 mi SSE 9.2 mph - 0.00 in   Overcast
5:56 AM 57.9 °F 57.9 °F 100% 29.96 in 5.0 mi SSE 8.1 mph - 0.00 in   Overcast
6:16 AM 57.2 °F 57.2 °F 100% 29.95 in 2.0 mi SSE 8.1 mph - 0.02 in Rain Light Rain
6:29 AM 57.2 °F 57.2 °F 100% 29.96 in 4.0 mi SSE 6.9 mph - 0.02 in Rain Light Rain
6:56 AM 57.0 °F 57.0 °F 100% 29.97 in 3.0 mi SSE 5.8 mph - 0.02 in   Overcast
7:05 AM 57.2 °F 57.2 °F 100% 29.96 in 2.5 mi SSE 6.9 mph - 0.01 in Rain Light Rain
7:32 AM 57.2 °F 57.2 °F 100% 29.97 in 1.5 mi SSE 5.8 mph - 0.01 in Rain Light Rain
7:54 AM 57.2 °F 57.2 °F 100% 29.98 in 2.5 mi SSE 6.9 mph - 0.04 in Rain Light Rain
7:56 AM 57.0 °F 57.0 °F 100% 29.98 in 3.0 mi SSE 8.1 mph - 0.04 in Rain Light Rain
8:16 AM 57.2 °F 57.2 °F 100% 29.99 in 2.0 mi SSE 8.1 mph - 0.00 in Rain Light Rain
8:27 AM 57.2 °F 57.2 °F 100% 29.99 in 4.0 mi SSE 8.1 mph - 0.00 in Rain Light Rain
8:52 AM 57.2 °F 57.2 °F 100% 30.00 in 2.5 mi SSE 9.2 mph - 0.01 in Rain Light Rain
8:56 AM 57.0 °F 57.0 °F 100% 30.00 in 2.5 mi SSE 10.4 mph - 0.01 in Rain Light Rain
9:16 AM 57.2 °F 57.2 °F 100% 30.00 in 5.0 mi SE 10.4 mph - 0.01 in Rain Light Rain
9:56 AM 57.9 °F 57.9 °F 100% 30.01 in 10.0 mi SSE 11.5 mph - 0.01 in   Overcast
10:39 AM 59.0 °F 59.0 °F 100% 30.02 in 10.0 mi SSE 10.4 mph - N/A   Overcast
10:56 AM 59.0 °F 59.0 °F 100% 30.03 in 10.0 mi SSE 10.4 mph - N/A   Overcast
11:56 AM 60.1 °F 60.1 °F 100% 30.03 in 10.0 mi South 8.1 mph - N/A   Overcast
12:11 PM 60.8 °F 60.8 °F 100% 30.03 in 10.0 mi South 9.2 mph - N/A   Overcast
12:39 PM 62.6 °F 60.8 °F 94% 30.04 in 10.0 mi South 8.1 mph - N/A   Overcast
12:56 PM 62.1 °F 60.1 °F 93% 30.04 in 10.0 mi South 8.1 mph - N/A   Overcast
1:03 PM 62.6 °F 60.8 °F 94% 30.04 in 10.0 mi South 8.1 mph - N/A   Overcast
1:13 PM 62.6 °F 60.8 °F 94% 30.04 in 10.0 mi South 8.1 mph - N/A   Overcast
1:48 PM 60.8 °F 59.0 °F 94% 30.05 in 10.0 mi South 9.2 mph - N/A   Overcast
1:56 PM 61.0 °F 59.0 °F 93% 30.05 in 10.0 mi South 9.2 mph - N/A   Overcast
2:56 PM 66.0 °F 61.0 °F 84% 30.04 in 10.0 mi South 10.4 mph - N/A   Overcast
3:56 PM 64.0 °F 59.0 °F 84% 30.05 in 10.0 mi South 10.4 mph - N/A   Overcast
4:56 PM 63.0 °F 59.0 °F 87% 30.05 in 10.0 mi SSE 10.4 mph - N/A   Overcast
5:56 PM 63.0 °F 59.0 °F 87% 30.05 in 10.0 mi South 9.2 mph - N/A   Overcast
6:56 PM 62.1 °F 57.9 °F 86% 30.05 in 10.0 mi SSE 10.4 mph - N/A   Overcast
7:56 PM 62.1 °F 59.0 °F 90% 30.05 in 10.0 mi SSE 9.2 mph - N/A   Overcast
8:43 PM 62.6 °F 59.0 °F 88% 30.04 in 10.0 mi SSE 4.6 mph - N/A   Overcast
8:56 PM 61.0 °F 59.0 °F 93% 30.05 in 10.0 mi South 3.5 mph - N/A   Overcast
9:22 PM 60.8 °F 59.0 °F 94% 30.05 in 10.0 mi ESE 3.5 mph - N/A   Overcast
9:56 PM 62.1 °F 59.0 °F 90% 30.05 in 10.0 mi SE 3.5 mph - N/A   Overcast
10:56 PM 62.1 °F 59.0 °F 90% 30.06 in 10.0 mi SSE 9.2 mph - N/A   Overcast
11:56 PM 60.1 °F 57.9 °F 93% 30.06 in 9.0 mi South 8.1 mph - N/A   Overcast